Location: Riedlingen
(48.1569°N, 9.4757°E)
Time: 02:31:19
(UTC+02:00)

ISS - Pass Details

Date: 15 May 2021
Orbit: 417 x 422 km, 51.6° (Epoch: 15 June)

Event Time Altitude Azimuth Distance (km) Brightness Sun altitude
Rises 00:24:27 0° 261° (W) 2,363 0.1 -21.9°
Reaches altitude 10° 00:26:34 10° 265° (W) 1,502 -0.9 -22.0°
Maximum altitude 00:29:53 57° 345° (NNW) 499 -3.2 -22.1°
Drops below altitude 10° 00:33:14 10° 66° (ENE) 1,508 -0.8 -22.2°
Sets 00:35:22 0° 71° (ENE) 2,375 0.2 -22.3°
